Skip Page Navigation
NASA JPL Caltech
NASA Logo - Jet Propulsion Laboratory + View the NASA Portal
+ Center for Near-Earth Object Studies
JPL Home Earth Solar System Stars & Galaxies Technology
JPL Solar System Dynamics
BODIES ORBITS EPHEMERIDES TOOLS PHYSICAL DATA DISCOVERY FAQ SITE MAP
IMPORTANT: The SSD Announcement email list is now available. Major changes are coming in the near future, including possible hostname and/or URL changes. To be notified of such changes, subscribe to this email list.

Please visit this page for more details.


JPL Small-Body Database Browser
Search: [ help ]  
97360 (2000 AG32)
Classification: Main-belt Asteroid          SPK-ID: 2097360
Ephemeris | Orbit Diagram | Orbital Elements | Mission Design | Physical Parameters | Discovery Circumstances | Close-Approach Data ]

[ show orbit diagram ]
Orbital Elements at Epoch 2459000.5 (2020-May-31.0) TDB
Reference: JPL 19 (heliocentric ecliptic J2000)
 Element Value Uncertainty (1-sigma)   Units 
e .1186842516106463 4.7168e-08  
a 3.156431231784049 2.7249e-08 au
q 2.781812553279289 1.5481e-07 au
i 4.990835465108655 5.8979e-06 deg
node 341.6779689840116 4.5623e-05 deg
peri 144.8022847129929 4.9725e-05 deg
M 214.4595109072341 2.0153e-05 deg
tp 2459828.583734246027
(2022-Sep-06.08373425)
0.00011825 TDB
period 2048.296980358213
5.61
2.6524e-05
7.262e-08
d
yr
n .1757557636671622 2.2759e-09 deg/d
Q 3.53104991028881 3.0483e-08 au
  Orbit Determination Parameters
   # obs. used (total)      835  
   data-arc span      6716 days (18.39 yr)  
   first obs. used      2000-01-03  
   last obs. used      2018-05-24  
   planetary ephem.      DE431  
   SB-pert. ephem.      SB431-N16  
   condition code      0  
   norm. resid. RMS      .56109  
   source      ORB  
   producer      Otto Matic  
   solution date      2018-May-31 15:46:34  

Additional Information
 Earth MOID = 1.7988 au 
 Jupiter MOID = 1.52308 au 
 T_jup = 3.189 
[ show covariance matrix ]

Ephemeris | Orbit Diagram | Orbital Elements | Mission Design | Physical Parameters | Discovery Circumstances | Close-Approach Data ]

Physical Parameter Table
Parameter Symbol Value Units Sigma Reference Notes
absolute magnitude H 14.2   n/a MPO432506  

97360 (2000 AG32)          Discovered 2000-Jan-03 by LINEAR at Socorro
Reference: 20050224/Numbers.arcLast Updated: 2005-02-28

[ show close-approach data ]
Ephemeris | Orbit Diagram | Orbital Elements | Mission Design | Physical Parameters | Discovery Circumstances | Close-Approach Data ]
ABOUT SSD CREDITS/AWARDS PRIVACY/COPYRIGHT GLOSSARY LINKS
FirstGov 2020-Jun-01 03:16 UT
(server date/time)  
NASA Home Page
Site Manager:   Ryan S. Park
Webmaster  Alan B. Chamberlin